Theta_e
302 302 303 303 303 304 304 304 305 305 306 306 306 307 307 308 309 309 310 310 310 310 311 312 312 313 312 311 310 309 310 313 314 314 312 310 310 311 313 314 315 315 314 313 312 312 313 314 314 315 315 315 316 316 317 318 318 319 319 319 319 319 319 318 318 318 318 318 318 318 319 319 320 320 320 319 319 318 318 319 320 321 321 321 321 321
302 302 303 303 304 304 305 305 305 306 306 306 307 307 307 308 308 308 309 309 309 310 310 310 311 312 312 312 311 310 309 310 310 310 310 310 310 311 311 312 312 312 312 312 312 312 313 314 314 315 315 315 315 316 316 317 318 318 319 319 320 319 319 318 318 318 318 318 318 318 318 318 319 320 320 320 320 319 319 319 320 320 321 321 321 320
302 303 303 304 304 305 305 305 305 306 306 306 307 307 307 307 307 308 308 308 309 309 310 310 310 310 310 311 311 310 310 309 309 308 309 309 310 310 311 311 312 312 312 312 313 313 314 314 314 314 315 315 315 316 316 316 317 317 318 319 319 319 319 319 318 318 318 318 318 318 317 318 318 319 320 320 321 320 320 319 320 320 321 321 321 320
301 301 302 302 302 303 303 303 303 303 303 304 305 305 306 306 307 307 307 308 308 308 309 310 311 311 311 312 312 311 310 309 308 308 309 310 311 311 312 313 313 313 314 314 314 314 314 314 314 314 314 315 315 315 316 316 316 317 317 318 318 319 319 319 319 318 318 318 318 317 317 317 318 318 319 320 320 321 321 320 320 320 321 321 320 319
299 299 299 300 299 299 299 299 299 300 300 301 302 303 304 305 306 307 307 307 306 306 307 309 310 311 312 313 313 312 310 309 309 310 311 312 312 313 314 314 314 314 315 315 314 314 314 314 314 314 314 314 314 315 315 316 316 317 317 318 318 318 319 319 319 318 318 318 318 318 317 317 318 318 318 319 320 320 321 321 320 320 321 321 320 319
298 298 298 297 297 297 297 297 297 298 298 299 300 301 303 304 305 305 306 306 305 304 304 305 306 308 309 310 310 310 309 309 310 312 313 313 314 314 315 315 315 315 315 315 315 315 314 314 313 313 313 313 314 314 315 315 315 316 316 317 317 318 318 319 319 319 318 318 318 318 317 317 318 318 318 319 319 320 320 320 320 320 321 320 319 318
297 296 296 296 296 297 297 297 297 298 298 299 300 300 301 302 303 303 304 304 304 304 304 304 305 306 306 307 308 308 309 310 312 313 314 314 314 314 313 313 312 313 314 314 314 314 314 313 312 312 312 312 313 313 314 315 315 315 316 316 317 317 318 318 318 319 319 318 318 318 318 317 317 318 319 319 319 319 319 319 320 320 321 320 319 318
295 296 296 296 296 296 297 297 297 298 298 299 300 300 301 301 301 302 302 303 304 305 306 306 307 307 308 309 309 309 310 311 312 312 312 312 311 311 309 308 308 308 310 311 311 312 311 311 310 310 310 311 312 313 314 314 315 315 315 315 316 316 317 317 318 318 318 318 318 318 318 318 317 318 318 319 319 319 319 319 319 320 321 319 318 318
295 295 295 296 296 296 297 297 298 298 299 299 300 300 301 301 301 302 302 303 304 305 306 306 307 308 308 309 309 309 309 308 308 308 308 307 307 306 306 305 306 306 307 308 309 309 309 309 309 309 310 310 312 313 314 314 315 315 315 315 316 316 316 317 317 317 318 318 318 318 319 318 318 317 318 319 320 320 319 319 319 319 320 319 318 317
295 295 295 296 296 297 297 298 298 298 299 299 300 300 300 301 301 302 303 303 304 304 305 305 305 305 305 305 306 306 306 305 305 305 306 306 306 306 306 307 307 308 308 308 309 309 309 309 309 310 310 311 312 313 314 314 314 315 315 315 315 316 316 316 317 317 317 317 318 318 318 318 318 318 317 318 319 320 320 319 318 319 320 319 318 317
295 295 295 295 296 296 297 297 298 298 298 298 299 299 300 300 301 302 302 302 302 302 302 302 302 303 303 303 304 304 305 305 306 306 307 307 308 308 308 309 309 310 310 309 309 309 309 310 310 310 311 311 312 313 313 313 313 314 314 315 315 316 316 316 316 316 316 317 317 318 318 318 318 318 318 318 318 319 320 320 320 320 319 318 317 317
295 295 295 295 295 296 296 297 297 297 297 297 297 298 298 299 299 300 300 300 300 300 301 301 302 302 303 304 304 305 306 307 307 308 308 309 309 309 309 310 311 311 311 310 309 309 309 310 310 311 311 311 312 312 312 312 313 313 314 314 315 315 316 316 316 316 316 316 317 317 318 318 318 318 318 317 318 318 319 319 320 320 318 317 317 317
294 294 294 294 295 295 295 295 295 296 296 296 296 297 297 298 298 299 299 299 300 300 300 301 302 303 304 304 305 305 306 306 307 307 308 307 307 307 309 310 311 312 310 309 309 309 309 310 310 310 311 311 311 311 311 312 312 313 314 314 315 315 316 316 316 316 316 316 316 317 317 318 318 318 318 317 317 318 319 319 319 318 317 317 317 316
293 293 293 293 294 294 294 294 295 295 295 295 296 296 297 297 298 298 299 299 299 300 301 301 302 302 302 303 303 303 303 304 305 306 306 306 306 307 308 309 310 309 309 309 309 310 310 310 310 310 310 310 310 310 311 311 312 312 313 314 315 315 316 316 316 316 316 316 317 317 317 318 318 318 318 317 317 317 318 319 319 318 317 317 317 316
293 293 293 293 293 293 294 294 294 295 295 295 296 296 297 297 297 298 299 299 299 300 301 301 301 301 300 300 301 301 302 303 304 305 306 307 307 308 309 309 309 309 309 310 311 311 311 310 309 309 308 308 309 309 310 310 311 311 312 313 314 315 316 316 316 316 316 316 316 316 317 317 317 317 317 317 317 317 318 318 319 318 318 317 317 316
292 292 293 293 293 293 293 294 294 295 295 295 296 296 297 297 297 298 298 299 299 300 300 300 299 299 299 300 301 302 303 304 305 306 307 308 308 309 309 310 310 311 311 312 312 311 310 309 308 307 307 308 308 308 309 309 310 310 311 312 313 314 315 316 316 316 316 315 315 315 315 316 316 316 317 317 317 317 317 318 318 318 317 317 317 316
292 292 292 293 293 293 294 294 294 295 295 296 296 296 297 297 297 298 298 299 299 299 299 299 299 299 300 300 301 302 304 305 306 306 306 306 306 306 307 307 308 309 310 310 310 309 308 307 307 307 307 307 308 308 309 309 310 310 311 311 312 313 314 315 316 316 315 315 314 314 314 314 315 315 316 316 317 317 317 318 318 317 317 317 316 315
292 292 292 293 293 293 293 294 294 295 295 296 296 297 297 297 297 298 298 298 298 299 299 299 299 300 300 301 302 302 303 304 304 304 303 303 303 303 303 304 305 306 306 307 307 306 306 306 306 306 307 307 308 308 309 309 310 310 310 311 311 312 312 314 315 315 315 315 314 314 314 314 314 315 315 316 316 317 317 317 318 317 317 316 315 314
292 292 292 292 293 293 294 294 295 295 296 296 297 297 297 297 297 298 298 298 298 299 299 299 300 300 301 301 301 301 301 301 300 300 301 301 301 302 302 303 304 304 305 305 305 305 305 306 306 306 307 307 308 308 309 309 310 310 310 311 311 311 312 313 314 314 315 315 315 315 315 315 315 315 315 315 316 317 317 317 317 317 316 316 315 314
291 291 292 292 293 293 294 295 295 296 296 296 296 297 297 297 297 298 298 298 299 299 299 300 300 300 300 300 300 299 299 300 300 300 301 301 301 301 302 303 303 304 304 304 305 305 305 306 306 306 307 307 307 308 308 309 309 310 310 311 311 311 311 312 313 314 314 314 314 314 314 314 314 314 315 315 316 317 317 317 317 316 315 315 314 313
291 291 291 292 293 293 294 295 295 296 296 296 296 297 297 297 298 298 299 299 299 299 300 300 300 300 300 300 299 299 299 299 300 300 301 301 301 302 302 303 303 304 304 305 305 305 305 305 306 306 306 307 307 308 308 309 309 310 310 310 310 311 311 312 312 313 313 314 314 314 313 313 313 314 314 315 316 316 316 316 315 314 314 313 312 311
290 291 292 293 293 294 295 295 295 296 296 296 297 297 297 298 298 298 298 298 298 298 299 299 299 299 299 299 298 298 299 299 300 300 301 301 301 302 302 303 304 304 305 305 305 304 304 304 305 305 305 306 307 307 308 308 309 309 309 310 310 310 311 312 312 313 313 313 313 313 313 313 313 313 314 315 315 315 315 314 313 312 311 311 310 309
291 292 292 293 294 295 295 295 296 296 296 296 296 296 296 296 296 296 296 296 296 296 296 296 297 297 297 298 298 298 299 299 299 300 301 301 302 302 303 303 304 305 305 305 304 304 304 304 304 305 305 306 306 307 308 308 308 309 309 309 309 310 311 311 312 312 312 313 313 313 312 313 313 314 314 315 314 314 313 312 311 310 309 309 308 307
292 292 293 294 295 295 295 295 295 295 294 294 294 294 294 294 294 294 294 294 295 295 295 296 296 297 297 298 298 299 299 300 300 301 301 302 302 303 304 304 305 305 304 304 303 303 303 303 304 304 305 305 306 307 307 308 308 308 308 308 309 309 310 310 311 311 312 312 313 312 312 312 313 314 314 314 313 313 312 311 310 309 308 308 307 306
293 293 294 294 294 294 294 293 293 293 293 293 293 293 293 293 293 293 294 294 294 294 295 296 297 297 298 299 299 300 300 301 302 302 302 303 303 303 303 302 302 302 302 302 302 303 303 303 304 304 305 305 306 306 307 307 307 307 307 308 308 309 309 310 310 311 312 312 312 312 312 312 313 314 313 313 312 311 310 309 309 308 307 306 306 305
293 293 293 293 293 292 292 292 292 292 292 292 292 292 292 292 293 293 293 294 294 295 296 297 298 298 299 299 299 299 299 300 301 301 300 300 300 300 300 300 301 301 301 302 302 302 303 303 303 304 304 305 305 306 306 306 306 306 306 307 307 308 308 309 310 310 311 311 311 311 312 312 313 313 312 311 310 309 308 307 306 306 305 305 304 303
292 292 291 291 291 291 291 291 291 291 291 291 291 291 291 292 292 293 293 294 295 296 297 298 297 297 296 295 295 295 296 296 296 296 297 297 298 299 300 300 300 301 301 302 302 302 303 303 303 303 304 304 305 305 305 305 305 305 306 306 306 307 308 308 309 310 310 310 310 311 311 312 312 311 310 309 308 307 306 305 304 303 303 302 301 301
291 290 290 290 290 290 290 290 290 290 290 291 291 291 291 291 292 292 293 294 294 295 296 295 295 294 294 293 293 293 294 294 295 296 296 297 298 299 299 300 301 301 302 302 302 302 302 302 302 302 303 303 304 304 304 304 304 304 305 305 306 307 307 308 308 308 309 309 310 310 311 311 310 309 308 307 306 305 304 303 302 302 301 300 300 299
290 290 290 290 290 290 290 290 290 290 290 290 290 290 290 290 291 291 292 292 293 293 293 293 293 293 293 292 292 292 293 293 294 295 296 297 298 299 300 300 301 301 301 301 301 301 301 301 301 302 302 303 303 303 303 303 303 304 304 305 305 306 306 307 308 308 308 309 309 310 309 309 308 307 306 305 304 303 302 301 301 300 300 299 299 299
289 289 289 289 289 290 289 289 289 289 289 289 289 290 290 290 290 290 291 291 293 294 294 293 293 292 291 291 291 291 292 293 294 295 296 297 298 299 299 299 299 299 299 299 299 299 300 300 300 301 301 302 302 302 302 302 303 303 303 304 305 305 306 306 307 308 308 308 308 308 307 306 306 305 304 303 302 301 301 300 300 299 299 299 299 298
289 289 289 289 289 289 289 289 289 289 289 289 289 289 289 289 289 290 291 292 293 293 293 292 291 290 289 290 290 291 292 292 293 293 294 295 295 296 296 296 296 297 297 298 298 299 299 300 300 300 301 301 301 301 301 302 302 302 303 303 304 304 305 306 306 306 306 306 306 305 304 304 303 302 301 301 300 300 299 299 299 299 299 299 298 297
289 289 289 289 289 289 289 288 288 288 288 288 289 289 289 289 289 290 290 291 291 291 290 289 289 288 288 289 289 290 290 291 291 292 292 293 293 294 294 295 295 296 296 297 297 298 298 299 299 299 299 300 300 300 301 301 301 302 302 303 303 303 304 304 304 304 303 303 302 302 301 301 300 300 299 299 299 299 299 299 299 299 299 298 298 297
288 288 288 289 289 289 289 288 288 288 288 288 289 289 289 289 289 289 289 289 289 288 288 288 288 288 288 288 288 289 289 290 290 291 291 292 292 293 293 294 295 295 295 296 296 297 297 298 298 298 298 299 299 300 300 300 301 301 302 302 302 302 302 302 302 301 301 300 300 299 299 299 298 298 298 298 298 298 298 298 299 299 299 298 297 296
288 288 288 289 289 289 288 288 288 288 288 288 288 288 288 288 288 288 288 288 288 288 288 288 287 287 287 287 287 288 288 289 290 290 291 291 291 292 292 293 293 293 294 295 295 296 296 296 297 297 297 298 298 299 299 300 300 301 301 301 301 301 301 300 300 300 299 299 298 298 297 297 297 297 297 297 297 298 298 298 298 298 298 297 296 295
287 288 289 289 289 289 288 288 288 288 288 288 288 288 288 287 287 287 287 287 287 287 287 287 287 287 287 287 287 287 288 289 290 290 290 290 290 290 291 291 291 292 293 294 294 295 295 296 296 296 297 297 297 298 299 299 300 300 300 300 300 300 299 299 299 298 298 298 297 297 296 296 296 296 296 297 297 297 296 296 296 297 296 296 296 295
287 288 289 289 289 289 288 288 288 288 288 288 287 287 287 287 287 287 287 287 287 287 287 287 287 287 287 287 287 287 288 289 289 290 290 290 289 289 289 290 290 291 292 293 293 294 294 295 295 296 296 296 297 298 298 298 299 299 299 299 299 299 298 298 298 297 297 297 296 296 296 296 296 296 296 296 296 295 295 295 295 295 295 295 294 294
288 288 289 289 289 288 288 288 288 287 287 287 287 286 286 286 286 286 286 287 287 287 287 287 287 288 287 287 287 287 288 288 289 289 290 290 290 289 289 290 290 291 291 292 293 293 294 294 294 295 295 295 296 297 298 298 298 298 298 298 298 297 297 297 297 297 296 296 296 296 296 296 296 296 295 295 295 294 294 294 294 294 293 293 293 293
288 288 289 288 288 288 288 287 287 287 287 287 286 286 286 286 286 286 286 286 287 287 287 287 287 288 288 288 287 287 287 288 288 289 289 290 290 289 289 290 291 291 291 292 292 293 294 294 294 294 294 294 295 296 297 297 297 297 297 297 297 296 296 296 296 296 296 296 296 295 295 295 295 295 295 294 294 294 294 293 293 293 292 292 292 291
288 288 288 288 288 288 287 287 287 287 286 286 286 286 286 286 286 286 286 286 286 287 287 287 287 287 287 287 287 287 287 287 287 288 289 289 289 290 290 290 291 291 292 292 292 293 294 294 294 294 294 294 294 295 296 296 296 296 296 296 296 296 296 296 295 295 295 295 295 295 295 295 294 294 294 294 294 294 294 293 293 292 292 291 291 291
287 288 288 288 287 287 287 287 287 286 286 286 286 285 285 286 286 286 286 286 286 286 287 287 287 287 287 287 286 286 287 287 287 288 288 289 289 289 290 290 291 291 292 292 293 293 294 294 294 294 294 294 294 294 294 294 295 295 295 295 295 295 295 295 295 295 295 295 295 295 294 294 293 293 293 293 294 294 293 293 292 292 292 291 291 290
287 287 287 287 287 287 287 287 286 286 286 286 285 285 285 285 285 285 286 286 286 286 286 286 286 286 286 286 286 286 286 287 287 287 288 288 289 289 290 290 291 291 292 292 293 293 293 294 294 294 293 294 294 294 294 293 294 294 294 295 295 294 294 294 294 294 295 295 295 294 294 293 293 293 293 293 293 293 293 292 292 292 291 291 290 290
287 287 287 287 286 286 286 286 286 286 286 285 285 285 285 285 285 285 285 285 285 286 286 286 286 286 286 286 286 286 286 287 287 287 288 288 289 289 290 290 291 291 292 292 293 293 293 293 293 293 293 293 293 293 293 292 292 293 293 294 294 294 294 294 294 294 294 294 294 293 293 293 293 293 293 293 293 293 292 292 292 291 291 291 290 290
286 286 286 286 286 286 286 286 286 286 285 285 285 285 285 285 285 285 285 285 285 285 286 286 286 285 285 286 286 286 286 286 287 287 288 288 289 289 290 290 291 291 292 292 292 293 293 293 293 293 293 293 293 292 292 292 291 292 292 293 294 294 293 293 293 293 293 293 293 293 293 293 293 293 293 293 293 293 292 292 292 291 291 290 290 290
286 286 286 286 286 286 286 286 286 286 285 285 285 285 285 285 285 285 285 285 285 285 285 285 285 285 285 286 286 286 286 286 287 287 288 288 289 289 290 290 291 291 291 292 292 292 293 293 293 292 292 292 292 292 291 291 291 291 292 292 293 293 293 293 293 293 293 292 292 292 292 292 293 293 293 293 293 293 292 292 291 291 291 290 290 290
285 285 285 286 286 286 286 286 286 285 285 285 285 285 285 285 285 285 285 285 285 285 285 285 285 285 285 286 286 286 286 286 287 287 288 288 288 289 289 290 290 291 291 291 292 292 292 292 292 292 291 291 290 290 290 290 291 291 291 292 292 293 293 293 292 292 292 292 292 292 292 293 293 293 293 293 293 293 292 292 291 291 291 291 290 290
285 285 285 285 285 286 286 286 286 285 285 285 284 284 285 285 285 285 285 285 285 285 285 285 285 285 285 286 286 286 286 286 287 287 288 288 288 288 289 289 289 290 290 291 291 291 291 291 291 291 291 290 289 289 289 290 290 291 291 292 292 292 292 292 292 292 292 292 292 292 292 292 293 293 293 293 293 292 292 292 291 291 291 290 291 291
284 284 285 285 285 286 286 286 285 285 285 284 284 284 284 285 285 285 285 285 285 285 285 285 285 285 285 285 285 285 286 286 287 287 287 287 287 288 288 288 289 289 289 290 290 290 290 290 290 290 290 289 289 288 289 289 290 291 291 292 292 292 292 292 292 291 291 291 292 292 292 292 292 292 292 292 292 292 292 291 291 291 290 290 290 290
284 284 284 285 285 285 286 285 285 285 284 284 284 284 284 284 285 285 285 285 285 285 285 285 285 285 285 285 285 285 285 286 286 287 287 287 287 287 287 288 288 289 289 289 289 289 289 288 288 288 289 289 289 289 288 289 290 291 291 292 292 292 292 292 291 291 291 291 291 291 291 290 291 291 291 291 291 291 291 291 291 291 290 290 290 290
284 284 284 285 285 285 285 285 285 285 284 284 284 284 284 284 285 285 285 285 285 285 285 285 285 285 285 285 285 285 285 286 286 286 286 286 286 286 286 287 287 288 288 289 289 289 288 288 288 287 287 288 289 289 289 289 290 291 291 291 292 292 292 291 291 291 291 290 290 290 289 289 289 289 289 289 290 290 290 290 291 291 290 290 290 290
283 284 284 285 285 285 285 285 285 284 284 284 284 284 284 284 285 285 285 285 285 285 285 285 285 285 285 285 285 285 285 285 285 285 285 285 285 285 286 286 286 287 287 288 288 288 288 288 288 287 287 287 288 289 290 290 291 291 291 291 291 291 291 291 290 290 289 289 289 288 287 287 287 287 287 287 288 288 289 289 289 290 290 290 290 290
283 284 284 284 285 285 285 285 284 284 284 284 284 284 284 284 285 285 285 285 285 285 285 285 285 285 285 285 285 285 285 285 285 285 285 285 285 285 285 285 286 286 287 287 287 287 288 287 287 287 287 287 287 288 290 291 291 291 291 291 291 291 290 289 289 288 288 287 287 287 286 286 286 286 286 286 286 286 287 287 288 288 289 289 289 289
Wind_Speed
32 33 33 33 35 37 37 36 36 37 37 36 36 35 34 34 34 35 35 36 37 38 39 40 41 41 40 41 41 40 39 39 40 41 41 40 38 36 35 36 36 38 40 41 43 43 42 41 40 39 38 37 37 38 39 40 42 44 46 48 49 50 50 49 47 45 45 46 47 48 49 49 49 49 48 48 48 48 47 47 46 47 49 52 53 52
31 31 32 31 32 33 34 33 33 32 33 34 34 34 34 34 35 35 36 36 37 37 38 39 40 40 41 41 41 40 39 39 40 41 41 40 38 36 36 36 38 39 41 42 42 42 41 41 40 40 39 38 37 37 38 38 39 41 43 45 47 48 50 50 49 47 45 45 46 48 49 50 50 50 49 48 48 48 48 47 47 47 49 52 53 52
31 31 32 31 32 33 33 34 33 33 34 35 35 34 34 35 36 36 36 37 37 37 37 38 39 40 41 41 41 40 40 40 40 40 40 39 38 37 36 36 37 38 38 38 38 38 38 39 39 39 39 38 38 38 38 38 38 39 40 42 45 47 48 49 50 49 47 45 46 47 48 50 51 51 50 49 49 48 49 48 47 47 49 51 52 52
31 32 32 32 33 34 35 37 38 38 38 38 37 37 37 37 37 37 36 37 37 38 39 39 40 41 41 40 39 39 40 41 41 40 39 38 36 36 35 34 34 34 33 33 33 33 34 35 36 37 37 37 37 37 37 38 38 38 39 41 43 45 47 48 49 49 49 47 46 46 47 49 51 51 52 51 50 50 50 49 48 48 49 51 52 52
32 32 32 32 33 34 36 36 36 37 37 36 36 35 35 35 36 36 36 37 39 40 41 41 40 39 38 37 37 38 40 41 42 41 39 37 35 34 33 33 32 31 30 30 30 30 31 32 33 34 35 35 35 36 37 37 38 38 38 39 41 44 45 47 48 49 50 50 48 47 47 49 50 51 52 52 51 51 51 50 49 48 49 51 52 53
31 32 32 33 34 34 36 35 35 34 34 34 34 33 33 33 34 35 36 38 40 42 42 41 40 40 39 38 38 39 40 41 41 40 39 37 35 34 34 33 33 32 31 30 29 30 30 31 33 33 34 35 35 35 36 37 37 37 38 38 39 42 44 46 47 49 50 50 50 48 48 48 50 51 51 52 52 53 52 52 50 49 50 52 52 53
31 32 32 33 34 34 35 35 34 34 33 33 33 33 33 33 34 35 36 37 38 39 39 39 39 39 39 38 38 38 38 39 39 38 35 34 34 34 35 36 36 36 35 34 34 34 35 36 37 37 37 37 36 36 36 36 36 37 37 37 38 39 41 44 46 48 49 50 49 49 48 48 49 50 51 52 53 54 53 52 51 50 51 52 52 53
32 33 32 33 33 33 34 34 33 32 31 32 33 33 35 35 36 36 36 36 35 35 34 34 35 36 35 35 35 35 36 37 37 36 35 36 37 39 41 42 42 41 40 40 40 41 41 41 41 41 40 39 38 37 36 35 35 36 36 36 37 38 39 42 44 47 49 49 49 48 47 48 49 50 51 52 54 54 54 53 52 51 52 52 52 52
32 32 32 32 32 32 33 33 32 31 31 31 32 33 35 36 37 37 36 35 33 32 32 34 35 36 36 35 34 35 37 39 41 41 42 43 44 45 45 44 43 42 41 41 42 42 42 42 41 41 40 39 38 37 35 35 34 35 35 36 36 36 37 39 42 45 47 49 48 47 46 47 49 50 51 52 53 54 54 54 53 52 53 53 52 52
30 30 31 32 31 30 31 32 32 31 31 31 32 33 34 35 36 36 36 36 35 34 33 35 37 39 39 38 38 38 39 40 42 42 43 43 43 42 41 39 37 36 36 37 37 38 38 38 37 37 37 37 37 36 35 34 34 34 35 35 35 36 36 37 40 42 45 47 47 47 46 47 49 51 52 52 53 54 55 54 54 54 54 53 53 53
29 30 31 31 30 30 30 31 32 32 32 32 32 31 30 30 32 34 36 37 37 36 36 35 35 36 36 37 37 37 37 38 39 40 40 40 40 39 38 36 34 32 32 33 34 35 35 34 34 33 34 34 35 35 35 34 34 34 34 34 34 34 35 36 38 40 43 46 47 47 47 48 49 51 53 53 53 54 54 55 55 54 53 52 52 54
29 30 31 31 30 30 30 31 31 31 30 30 30 30 30 29 29 30 33 35 36 37 37 36 35 34 34 35 35 36 36 38 39 39 39 38 38 38 38 36 34 33 33 34 36 36 35 34 33 33 32 33 33 34 34 34 33 33 33 33 33 33 33 34 36 38 41 44 46 47 48 48 50 52 53 54 54 54 55 55 55 54 52 51 52 55
30 30 31 31 31 31 30 31 31 30 29 29 29 30 31 30 29 30 32 33 35 36 36 36 36 35 34 34 34 36 37 38 38 38 38 38 38 37 36 36 35 34 35 37 38 37 36 35 35 34 34 34 34 34 33 33 32 32 31 31 31 31 32 33 34 36 38 40 43 45 47 48 50 52 54 54 54 54 55 56 55 53 51 51 54 58
32 32 32 32 32 31 30 30 31 31 30 30 30 30 31 31 31 32 33 34 34 34 35 37 37 37 36 35 35 35 35 36 36 36 37 38 37 35 34 35 35 36 37 37 37 36 35 36 37 38 38 37 37 36 35 34 33 32 31 31 30 30 31 31 32 33 34 36 39 41 44 46 49 51 52 53 53 53 55 56 56 54 52 53 57 60
32 32 31 31 31 31 30 29 29 30 31 31 31 31 31 32 32 32 33 34 35 35 35 36 37 37 37 36 34 33 31 32 33 35 36 37 36 34 33 34 35 35 36 35 34 34 35 38 40 42 42 41 40 39 38 37 35 34 33 31 30 30 30 30 31 32 33 34 35 38 40 43 46 49 50 50 50 52 54 56 56 54 53 56 60 63
32 31 31 31 31 30 30 29 29 30 32 32 32 32 33 33 33 33 33 34 35 35 34 35 36 36 36 34 32 28 26 27 29 31 33 32 31 30 30 30 31 33 33 33 32 33 37 42 45 46 46 45 43 42 40 39 38 37 35 33 31 30 30 30 31 32 32 33 34 36 38 40 43 46 48 49 49 50 53 55 54 53 53 57 61 63
33 32 32 32 32 32 32 31 31 32 33 34 34 33 33 35 34 34 33 34 34 34 34 33 32 31 32 32 30 25 21 22 24 28 32 35 36 35 33 32 32 32 33 33 34 38 42 46 48 48 47 46 45 43 42 41 40 39 37 35 33 32 31 30 31 32 33 33 34 35 36 38 41 43 46 48 49 50 52 53 52 51 53 57 60 61
34 34 35 35 34 34 34 33 33 34 34 34 34 34 35 36 36 36 35 34 34 34 34 33 32 30 30 32 31 28 26 27 30 35 39 42 44 43 40 37 36 37 38 39 41 44 46 48 48 48 47 46 45 44 42 41 40 39 38 37 35 34 32 32 32 33 33 32 32 33 34 37 39 42 45 48 49 50 51 52 52 51 53 58 60 60
36 36 36 35 35 35 35 35 35 36 36 35 34 35 36 37 37 37 37 36 35 35 34 33 33 33 33 34 35 35 35 34 36 38 40 42 43 43 41 37 37 38 40 42 43 45 46 46 46 46 46 45 44 43 41 40 39 38 37 37 36 34 33 33 34 34 35 33 32 32 32 34 36 40 43 47 50 51 51 52 52 53 55 59 62 62
38 37 36 35 36 37 37 36 36 36 38 39 39 39 38 39 39 38 38 37 36 35 33 33 33 34 34 36 39 40 39 37 36 37 39 40 41 42 40 36 36 37 39 41 42 43 43 43 44 44 44 43 42 41 39 38 37 36 36 35 35 34 33 33 34 35 35 35 34 32 31 31 33 36 42 47 50 51 52 52 53 54 57 60 62 62
40 39 38 38 39 39 38 39 40 40 41 41 40 40 39 38 37 35 33 32 32 32 33 33 35 36 37 40 42 44 44 41 38 38 38 40 42 42 39 36 35 36 38 39 40 40 40 41 42 43 43 42 41 39 38 37 36 35 34 34 34 33 33 32 33 34 35 35 34 33 31 28 29 34 41 47 50 51 51 52 53 55 57 59 59 58
41 41 40 40 40 41 41 43 43 42 40 38 37 35 34 34 33 32 33 34 35 35 37 38 40 42 44 47 48 48 47 43 41 41 40 40 42 43 41 36 33 33 34 36 37 39 40 42 43 44 43 41 40 38 37 36 35 34 34 33 33 33 32 32 32 33 34 34 33 32 30 27 29 35 42 47 49 50 51 52 54 55 55 55 54 53
41 42 42 41 40 40 40 39 38 36 35 33 32 32 34 35 36 38 40 42 43 43 44 46 47 47 48 48 48 47 45 43 42 42 40 39 39 40 38 33 29 28 31 33 36 38 40 43 44 44 43 41 40 38 37 36 35 34 33 33 33 33 33 32 32 33 33 33 33 31 29 28 32 37 43 46 49 50 51 53 54 54 53 53 52 50
40 41 40 39 38 36 35 34 34 35 36 37 39 42 43 44 45 46 45 45 46 46 45 45 46 46 45 45 44 43 42 40 39 38 37 36 36 36 33 28 26 27 32 36 37 38 40 43 44 43 42 40 39 37 36 35 34 33 33 33 33 33 33 33 33 32 32 32 31 30 29 30 34 39 44 47 49 51 53 54 54 54 53 52 51 50
37 37 37 36 35 34 35 36 37 39 41 42 43 44 45 44 44 43 42 42 41 41 42 42 41 40 39 38 37 35 34 30 27 26 26 26 28 30 32 32 32 35 38 39 40 41 42 43 42 41 40 39 38 36 35 34 33 33 33 33 33 33 33 32 31 30 29 29 29 28 29 32 36 41 45 48 50 52 53 53 54 53 53 52 51 49
34 34 34 35 35 35 36 37 38 38 38 37 36 36 36 36 36 36 37 37 38 39 39 37 35 32 30 28 27 28 27 24 22 22 26 28 32 36 38 37 35 36 39 40 41 41 41 40 40 39 39 38 37 36 35 34 34 33 33 33 33 32 30 28 27 26 26 26 26 27 30 34 39 43 46 49 50 51 51 52 52 51 51 49 48 46
34 35 35 36 36 36 35 35 35 34 33 31 30 29 29 31 33 35 37 37 36 35 32 29 27 27 28 29 30 32 33 34 36 36 34 33 34 36 38 38 37 37 38 38 38 38 38 38 39 39 39 38 37 36 35 34 33 32 31 30 29 28 26 25 24 23 23 23 24 27 33 37 42 45 48 49 49 50 50 50 49 48 47 45 43 40
37 38 37 36 35 34 34 34 35 35 33 32 30 28 28 29 31 33 34 33 33 32 30 30 30 31 32 33 35 37 38 38 37 34 32 31 31 33 36 36 36 35 35 35 36 36 37 38 39 39 38 37 36 34 33 31 30 28 27 26 25 24 22 22 21 21 21 22 26 31 36 41 44 46 48 48 48 48 48 47 46 44 42 40 38 36
40 39 37 35 33 33 33 35 37 37 35 33 30 28 27 27 29 31 32 32 32 33 34 34 34 33 33 35 37 39 39 38 35 30 25 24 26 30 32 32 31 31 31 32 34 36 38 38 38 37 35 33 31 29 28 26 25 24 22 21 20 19 18 18 18 19 21 25 30 36 40 43 45 47 47 47 46 45 44 43 41 40 38 37 35 34
42 41 38 35 34 33 34 36 38 37 35 33 31 29 28 28 29 30 31 31 32 32 31 31 32 33 34 35 35 35 34 32 28 22 17 19 23 27 29 30 31 31 31 31 31 33 34 34 33 31 28 26 24 23 22 22 21 20 18 16 15 15 15 16 18 21 25 29 34 39 42 43 44 44 44 43 42 41 40 39 38 37 36 35 34 33
43 41 38 36 35 35 36 37 38 37 36 33 32 31 30 30 30 30 30 31 31 31 31 34 36 37 36 33 29 27 27 28 26 22 20 22 26 29 31 31 32 33 32 29 26 24 25 26 26 25 23 22 21 20 20 19 18 16 15 14 13 14 16 19 22 26 29 34 37 39 40 40 40 40 39 39 38 38 37 37 36 36 35 34 34 33
41 39 37 36 35 35 36 37 37 37 36 35 34 33 32 31 31 30 30 30 31 34 36 38 39 38 35 31 29 28 29 31 32 31 28 27 29 32 31 30 30 31 31 29 27 24 21 21 23 24 24 23 21 20 19 16 14 14 15 15 16 18 21 25 28 30 32 33 34 35 35 35 35 35 35 36 36 36 35 35 35 34 34 34 34 34
38 37 36 35 34 34 34 36 37 36 36 35 34 33 32 32 32 32 31 32 34 36 37 38 37 36 34 33 32 33 34 35 35 33 29 27 28 30 30 29 29 30 30 31 30 29 27 27 27 28 28 25 22 19 16 14 15 16 17 19 20 23 25 28 30 31 31 30 30 30 31 31 32 33 33 34 34 34 34 34 33 33 33 34 34 35
37 36 36 35 34 34 35 35 35 35 34 34 33 33 33 34 34 35 35 36 36 36 36 35 34 34 34 33 34 34 35 35 34 31 28 27 28 30 31 31 31 31 30 30 30 31 31 32 31 29 26 25 22 19 16 15 17 19 20 23 25 26 28 29 30 30 29 29 29 29 30 30 31 31 31 32 32 32 32 33 33 33 33 34 35 35
36 37 36 35 34 35 36 36 35 34 33 33 33 34 35 36 37 37 37 37 36 35 34 32 31 31 31 32 33 34 35 35 33 30 28 28 30 32 32 33 32 31 29 29 30 30 31 32 32 29 24 23 20 18 17 18 20 22 23 26 28 29 29 30 30 30 30 30 30 31 31 31 31 31 30 30 30 30 31 32 33 33 33 33 34 35
36 36 35 34 34 36 37 37 35 34 34 34 35 36 38 39 39 38 37 36 35 33 31 29 28 27 27 28 30 32 34 33 31 29 27 28 30 33 34 34 33 32 30 30 30 31 30 30 30 29 25 22 20 19 19 21 23 25 26 27 28 29 30 30 31 31 31 31 32 32 32 31 31 30 30 29 29 29 29 30 31 31 31 30 31 31
36 34 33 33 34 36 37 37 36 35 35 37 39 40 40 40 39 38 37 35 34 32 30 28 26 24 24 24 26 28 30 31 30 28 27 27 29 32 35 35 33 32 32 32 32 32 31 29 28 26 24 22 21 21 22 23 24 25 25 26 27 28 28 29 30 31 32 32 32 32 31 30 29 29 29 28 28 27 27 27 27 27 27 27 26 26
34 33 32 32 34 35 36 37 36 36 38 40 41 41 41 40 39 37 36 34 33 31 29 27 25 23 22 23 24 26 29 30 30 29 29 28 29 31 33 34 33 31 32 32 33 32 31 29 26 23 21 21 21 22 24 25 25 25 25 25 26 26 27 28 29 30 31 31 31 31 30 29 29 29 28 28 28 27 26 26 25 24 24 23 22 22
34 33 33 33 34 35 37 37 37 38 40 41 42 42 41 40 38 37 35 34 32 30 28 27 25 24 23 23 24 26 29 30 31 31 30 30 30 31 31 32 32 31 30 30 30 30 30 29 27 24 22 21 21 22 25 27 27 27 27 26 26 26 26 27 28 29 30 30 30 30 29 29 29 29 30 29 29 28 28 27 25 24 24 22 21 20
35 35 35 35 35 36 37 37 38 40 41 42 42 42 40 39 38 37 35 34 32 30 28 26 25 24 24 24 25 27 28 29 30 30 30 30 30 30 30 30 30 29 28 27 27 28 27 27 27 26 24 22 22 22 25 27 28 29 29 28 27 26 27 27 28 29 29 29 30 30 30 30 30 30 30 30 30 30 29 28 26 25 24 24 23 22
35 35 35 35 36 36 37 37 38 40 41 41 41 41 40 39 38 38 36 34 32 30 28 27 26 26 25 25 25 26 27 28 28 29 29 29 29 28 28 27 26 25 24 24 24 24 25 25 24 24 24 22 22 22 25 27 28 29 30 30 30 29 29 29 29 29 29 29 29 30 30 31 31 30 30 30 29 29 28 27 26 24 23 23 23 24
35 36 36 36 36 37 38 38 39 40 40 40 40 39 39 38 37 37 36 35 33 31 29 28 27 27 27 26 25 25 24 25 26 26 26 26 26 25 24 22 21 20 20 20 20 20 21 22 22 22 22 22 21 22 25 27 29 29 30 31 32 31 30 29 29 29 29 29 29 30 31 31 31 30 29 29 28 27 26 25 24 23 22 21 21 21
35 37 38 38 38 38 38 38 38 39 40 40 39 38 38 37 36 35 35 34 33 31 29 28 27 27 27 26 25 23 22 22 23 23 22 22 21 20 19 18 17 16 16 16 16 16 17 18 19 21 21 21 20 22 26 28 29 29 30 32 32 32 30 29 29 29 29 29 29 29 30 30 30 29 28 28 27 26 25 24 22 21 20 20 19 19
36 37 38 39 38 38 37 36 37 39 39 39 39 38 37 36 35 34 33 33 32 30 29 28 27 26 26 25 24 22 20 20 19 19 18 17 16 15 14 14 13 13 13 13 13 14 15 16 18 19 19 19 19 22 26 29 30 30 31 32 32 33 32 31 31 30 29 29 29 28 28 28 28 27 27 27 27 26 25 24 23 21 20 19 18 18
36 37 38 37 37 37 37 37 38 39 40 39 38 37 36 35 34 33 32 32 31 30 28 27 26 25 25 24 23 21 19 17 16 14 13 12 12 11 10 10 10 10 11 11 11 12 14 16 17 17 17 17 19 22 27 30 32 32 32 32 33 33 32 32 31 31 30 30 29 28 28 27 27 26 26 26 26 26 25 24 23 22 21 20 19 18
37 37 38 38 38 38 37 38 39 40 40 39 38 36 35 34 33 32 31 31 30 29 28 26 25 24 23 23 22 20 17 15 13 11 9 8 7 7 6 6 6 7 7 8 9 10 11 13 15 16 17 17 19 23 27 30 33 33 33 33 32 32 31 31 31 31 30 30 29 29 28 27 26 26 26 26 26 26 25 24 24 23 22 22 22 21
38 39 39 39 39 39 39 39 40 40 39 38 37 36 35 33 32 31 30 30 29 28 27 25 24 22 21 20 19 17 14 12 9 7 5 4 3 2 2 2 2 2 3 4 5 5 6 7 9 11 14 17 21 25 28 30 32 33 33 32 32 31 30 30 30 29 29 29 28 29 29 28 27 26 26 26 26 26 26 25 24 24 23 23 23 24
39 39 39 39 39 39 38 39 40 40 39 38 37 35 34 32 31 30 30 29 28 27 25 24 22 19 18 17 16 15 12 9 7 4 2 2 3 3 3 4 4 5 6 7 9 10 10 9 7 5 8 13 19 24 27 30 31 32 32 31 30 29 28 28 27 27 27 26 26 26 27 27 27 27 27 27 26 26 26 26 26 25 24 24 24 25
38 39 39 39 39 38 38 39 40 40 39 38 36 35 33 31 29 28 28 27 26 25 23 21 18 16 14 13 13 12 10 7 4 2 3 5 6 7 7 7 8 9 10 11 12 13 14 14 13 10 7 8 14 20 24 28 30 30 29 28 27 25 25 24 24 24 24 24 24 24 24 25 26 26 27 27 27 27 27 27 27 27 26 26 26 26
39 39 39 39 38 38 39 40 40 39 38 36 35 34 32 30 28 26 26 25 24 23 20 18 15 13 12 12 11 9 6 3 2 4 5 7 7 8 8 8 8 9 10 12 13 13 14 14 14 13 12 9 9 13 19 23 26 26 25 24 23 22 21 21 21 22 22 22 23 23 23 23 23 23 24 25 26 27 27 28 28 28 28 28 28 28
39 39 39 38 38 38 39 40 39 38 37 35 34 33 31 29 27 26 25 24 23 20 17 14 12 11 10 10 9 6 3 3 5 6 6 7 7 7 7 7 7 8 9 11 12 13 14 14 14 13 13 12 11 10 12 16 19 20 20 20 20 20 20 19 20 20 21 21 21 22 22 22 22 22 23 24 25 26 27 27 28 28 28 28 28 28
Wind_Direction
297 298 298 298 298 298 298 298 298 297 297 297 296 296 296 296 295 294 293 293 293 293 293 292 290 289 288 289 291 292 290 287 285 285 288 291 291 288 285 282 281 281 282 284 285 286 285 285 284 284 283 280 277 273 270 268 267 267 267 265 263 261 259 257 256 254 252 250 248 247 245 243 242 242 241 240 239 238 237 237 234 231 227 223 220 218
299 300 300 300 299 299 298 299 299 298 298 298 297 297 297 296 296 295 295 294 293 293 292 291 291 289 288 288 290 291 290 288 286 286 288 289 289 287 285 283 282 282 283 284 285 285 285 285 285 285 285 283 280 277 274 270 268 266 265 265 264 262 260 258 255 254 252 250 248 246 245 244 242 241 240 239 238 238 237 237 235 232 228 223 220 217
303 303 303 303 302 301 300 301 301 301 301 301 300 300 299 298 297 296 295 295 295 294 292 291 290 289 288 288 288 290 292 293 292 291 290 289 288 287 286 285 284 284 283 283 284 285 285 286 286 286 285 284 282 280 277 275 272 270 268 267 265 263 261 259 256 254 252 250 248 246 245 244 242 241 239 238 237 237 237 237 236 234 230 224 219 216
302 303 303 303 303 301 300 300 300 300 301 301 301 300 300 299 297 296 295 295 295 295 295 293 291 289 287 286 286 289 293 297 298 297 294 291 289 288 288 288 287 286 286 286 286 286 287 287 287 288 287 286 284 282 281 279 277 275 273 271 269 266 263 260 258 255 253 250 248 246 244 243 242 241 239 238 237 236 236 237 237 236 233 226 220 216
300 300 301 302 302 301 300 300 300 300 300 299 299 299 298 298 297 296 296 296 296 295 295 295 293 290 288 286 287 290 294 297 297 295 292 290 289 288 289 289 289 289 289 289 289 289 290 290 290 290 290 289 287 285 283 281 279 278 276 274 271 269 266 262 259 256 254 251 249 247 245 243 241 240 240 238 237 236 236 236 237 236 233 226 219 216
298 298 299 300 300 301 302 302 302 302 301 300 299 298 298 297 297 296 296 296 296 295 294 293 292 291 290 289 289 291 294 294 292 288 285 284 284 285 287 288 288 289 289 289 290 290 290 291 291 292 292 291 289 286 284 282 280 279 278 275 273 271 268 264 261 258 255 252 250 248 245 243 241 240 239 238 237 236 236 236 237 236 232 224 217 215
297 298 299 299 300 300 301 301 301 302 302 301 301 300 299 298 297 296 296 296 296 296 295 293 292 291 289 288 289 292 294 292 287 283 281 282 283 285 286 287 287 287 286 286 286 287 287 288 290 291 291 291 289 287 284 282 281 280 279 278 276 273 270 267 263 260 257 254 252 250 247 245 242 240 238 238 237 237 236 236 236 235 231 222 216 214
297 298 299 300 300 301 301 300 300 300 300 300 300 300 299 298 298 297 297 297 297 296 295 294 293 292 290 289 290 292 293 291 289 287 288 287 286 286 286 286 286 285 284 283 283 284 285 287 288 289 290 290 289 287 285 283 282 281 281 280 279 276 273 270 267 263 259 256 254 252 250 248 245 241 238 237 236 236 236 235 236 235 230 222 217 214
296 297 298 299 299 299 299 299 298 299 299 298 297 298 298 299 299 299 299 299 298 296 296 296 296 295 294 292 292 292 291 289 289 290 290 289 288 287 287 287 286 285 283 282 283 284 285 287 288 288 287 287 287 287 286 285 284 284 283 282 281 279 276 274 271 267 263 258 255 254 253 251 248 245 240 236 234 234 234 235 235 235 231 223 218 216
295 296 298 298 297 296 297 296 297 298 299 298 297 296 297 298 299 300 301 300 299 298 297 297 296 296 295 294 293 293 291 290 290 290 290 290 291 292 292 292 290 288 285 285 285 287 288 289 288 287 286 285 285 285 286 287 287 286 286 284 282 280 278 276 274 270 266 260 256 254 253 253 251 248 243 239 234 231 231 233 235 234 230 223 219 216
296 297 298 298 297 296 295 295 296 298 299 298 297 296 295 296 297 299 300 300 300 300 299 298 297 295 294 294 294 294 293 293 293 293 293 293 294 296 297 296 294 292 290 289 290 291 291 291 290 288 287 286 286 286 287 288 288 289 288 286 284 282 279 277 275 272 268 263 259 255 253 253 252 250 246 241 236 232 230 230 232 232 228 223 218 215
297 298 298 297 297 296 295 295 296 297 298 298 298 297 296 295 294 295 296 297 299 300 300 300 299 297 295 295 296 297 296 296 295 295 294 294 294 294 295 294 293 291 290 291 292 292 292 292 291 291 290 289 289 288 289 290 291 291 291 289 286 283 280 277 275 272 269 266 261 257 255 254 253 251 248 243 239 235 232 230 230 229 226 222 218 214
297 297 296 296 295 295 294 295 296 297 296 296 296 295 295 295 294 293 292 293 295 298 300 301 300 299 297 296 297 297 297 296 295 294 293 292 292 291 291 289 287 286 288 290 292 292 292 292 292 292 292 292 292 291 292 292 293 294 295 294 291 286 281 277 274 271 269 266 263 260 258 255 254 251 248 245 241 238 235 232 231 230 226 222 217 213
297 296 295 294 293 292 293 293 294 295 293 293 292 292 292 293 294 294 293 293 295 297 299 299 298 298 297 296 295 294 294 294 293 292 291 291 290 288 286 284 283 285 287 289 289 290 291 292 292 292 292 292 292 292 293 294 295 296 297 297 295 290 283 277 272 269 267 266 264 263 260 258 255 252 249 245 243 240 237 234 233 231 227 221 216 213
296 295 294 292 291 291 291 291 291 292 291 291 291 291 292 293 293 293 293 294 296 297 298 297 297 297 297 296 296 296 294 293 291 290 289 288 287 286 284 282 283 284 285 284 284 286 289 290 291 291 291 291 292 292 293 294 295 296 297 298 297 293 286 278 272 267 265 264 263 263 262 260 257 253 250 247 244 241 238 236 235 232 228 221 216 213
295 294 291 290 290 289 290 290 289 289 289 290 291 290 290 291 292 292 293 294 295 296 296 297 298 298 298 298 299 300 298 293 290 289 290 290 291 291 291 290 288 286 284 281 281 283 287 289 290 291 292 292 293 294 295 296 296 296 296 297 297 294 288 280 272 267 264 262 261 261 261 260 258 256 252 249 246 242 239 237 236 233 227 220 215 212
294 293 291 290 289 289 289 289 289 288 289 290 290 290 289 290 291 292 292 292 293 293 293 293 294 294 296 298 299 299 298 296 295 295 296 296 295 294 295 297 296 293 289 285 283 284 286 288 289 291 292 294 295 297 297 298 297 296 296 295 295 294 290 282 274 267 263 262 261 261 260 259 258 257 255 251 247 243 240 238 235 232 226 218 212 208
293 292 291 290 289 289 289 289 288 288 289 289 290 290 291 291 291 290 289 289 289 289 289 289 288 288 290 293 295 294 293 294 295 295 295 293 290 288 289 290 290 288 286 284 283 284 286 288 290 292 293 295 297 298 299 299 298 297 296 294 294 293 291 286 278 270 264 263 263 264 262 260 259 257 255 251 247 243 240 237 235 231 225 216 210 207
293 292 290 289 288 288 287 287 287 287 288 289 289 289 289 289 289 288 287 286 286 286 285 285 286 286 287 288 290 291 292 293 294 293 292 291 290 289 288 287 285 283 281 281 282 284 287 289 292 293 295 297 298 299 299 299 298 297 295 294 293 293 292 288 282 274 268 267 269 271 269 264 260 256 253 249 245 242 239 236 234 229 223 215 211 209
292 290 288 286 286 286 285 286 287 289 290 291 291 289 287 287 287 286 285 285 285 285 285 284 284 286 286 287 289 291 293 294 293 291 289 288 289 290 290 287 284 282 282 283 285 287 289 291 294 295 297 298 299 299 300 299 298 297 295 294 293 292 291 289 284 277 272 271 274 276 275 268 262 257 252 246 242 238 235 232 228 223 217 212 210 208
289 287 287 287 287 285 284 287 290 292 292 291 289 287 286 286 286 287 287 289 290 291 290 288 287 288 288 289 289 290 291 291 289 287 286 286 286 287 287 286 283 282 281 283 286 290 292 293 295 296 297 299 300 300 301 300 299 297 295 293 292 291 290 287 282 277 273 273 276 277 275 268 262 256 250 243 237 232 227 221 216 211 207 205 204 203
287 287 289 291 289 287 286 289 291 292 292 291 289 287 288 290 292 294 296 296 296 294 292 290 289 288 288 287 287 288 289 288 286 284 283 282 283 285 287 285 282 279 278 281 286 290 293 295 296 297 298 299 300 301 301 300 299 297 295 293 291 289 287 284 280 276 274 275 276 276 271 264 259 254 247 238 230 222 216 210 204 201 199 199 198 197
290 289 290 291 291 290 291 292 293 295 297 298 298 298 298 298 298 297 296 295 293 291 290 288 288 288 287 286 287 288 290 289 287 284 279 276 276 280 284 282 278 275 277 282 287 291 292 295 297 298 299 300 300 300 300 299 298 296 294 292 290 288 285 282 279 276 276 276 275 272 267 261 256 249 239 228 219 212 206 202 198 197 196 195 195 194
293 292 292 293 295 297 299 301 302 303 303 302 301 299 298 297 295 294 293 292 292 291 291 291 290 289 288 287 287 288 290 291 289 283 274 270 272 277 281 283 283 283 285 287 289 290 292 294 297 298 299 299 299 299 299 298 297 295 293 292 290 287 285 282 280 278 276 275 272 269 263 257 249 239 227 216 209 204 201 198 197 196 195 195 194 192
297 297 298 300 302 304 304 304 304 302 301 300 299 297 296 295 295 295 295 295 295 295 294 292 288 285 285 286 287 288 291 293 289 283 279 279 282 286 287 289 290 290 289 289 290 291 293 295 296 297 298 298 299 299 299 298 297 296 294 292 290 287 285 282 280 278 276 273 270 264 256 248 237 225 214 207 202 199 197 196 195 194 194 193 192 191
304 304 304 304 304 304 303 302 302 302 302 301 300 300 300 300 300 300 300 299 298 296 293 288 284 284 288 291 293 293 292 290 290 293 297 298 297 295 292 290 289 288 288 290 292 293 293 294 296 297 298 298 299 299 299 298 297 296 294 291 288 285 283 281 279 278 276 273 266 256 244 233 222 212 204 200 197 194 193 191 191 190 190 189 188 186
309 308 307 306 305 305 306 308 310 311 311 311 309 307 305 304 303 301 299 298 298 297 295 292 293 297 300 300 298 295 293 291 291 293 295 296 293 290 289 289 288 287 287 290 291 292 292 293 295 297 298 299 299 299 299 298 297 295 292 289 286 283 282 281 280 278 274 267 254 240 228 217 208 201 196 193 191 189 188 187 186 185 184 183 181 180
311 311 310 309 310 310 312 315 317 319 319 318 316 312 308 306 302 299 297 298 299 299 299 300 302 303 303 301 299 297 295 294 294 294 294 292 287 283 285 287 287 287 288 290 291 292 292 293 295 296 298 298 299 299 299 298 297 295 293 290 287 285 283 281 278 273 264 251 236 224 214 205 199 194 191 189 187 185 184 183 182 181 179 177 176 176
313 314 314 315 316 315 313 316 318 320 321 320 318 314 310 308 303 299 298 299 299 297 296 297 299 301 301 300 299 298 296 294 295 296 297 290 283 281 284 287 289 291 292 293 294 294 294 294 294 295 297 298 298 298 298 297 296 295 293 290 287 283 279 273 267 257 245 233 221 210 202 196 192 189 187 185 184 183 182 180 178 176 175 175 176 176
315 316 317 319 318 316 315 316 318 320 320 319 316 313 312 310 306 303 302 301 298 294 294 297 299 300 300 300 299 297 294 293 295 296 294 288 286 286 288 290 291 292 294 295 296 295 294 294 294 295 297 299 298 296 294 291 289 288 285 280 274 266 257 248 240 231 221 214 205 197 192 188 186 184 182 181 180 179 178 176 175 174 174 175 175 175
315 317 319 320 319 317 316 317 319 319 320 318 316 314 313 311 309 307 305 300 295 294 296 300 301 300 299 297 295 292 289 289 290 289 287 288 287 287 287 289 290 291 292 292 291 290 291 293 295 296 298 300 299 295 290 284 277 271 266 258 245 231 218 211 206 201 197 192 188 184 181 179 177 176 174 173 173 173 173 174 174 175 175 175 174 173
315 318 320 320 318 316 315 317 318 319 318 317 316 314 313 311 310 307 303 298 296 296 299 300 300 299 297 293 287 283 283 285 286 287 288 289 288 287 288 288 289 291 292 291 287 282 281 285 289 292 294 295 294 291 284 271 254 241 239 230 217 203 191 185 181 178 176 174 172 170 168 167 166 165 165 166 167 169 171 174 176 178 178 177 174 172
316 319 320 318 316 314 314 316 317 317 317 315 314 313 311 310 309 307 304 301 300 301 302 302 301 299 297 292 287 284 283 285 287 289 291 290 288 288 288 288 288 289 290 290 287 282 277 277 280 284 285 284 283 280 268 250 228 214 211 206 197 187 178 173 169 165 162 160 159 158 157 157 157 158 160 163 166 170 173 176 179 181 181 179 176 173
319 320 318 315 313 313 314 315 316 316 315 313 312 311 311 310 310 309 307 306 306 306 306 305 303 300 297 294 291 288 286 286 288 291 292 290 287 286 286 287 287 287 288 287 285 282 279 277 276 276 276 274 270 262 244 231 213 202 199 191 184 177 172 168 164 161 158 156 155 154 154 155 156 158 161 164 168 172 175 178 181 182 182 181 177 174
320 318 315 312 311 313 314 315 315 315 314 313 312 312 312 312 312 312 311 310 309 309 308 307 304 302 299 295 292 290 289 290 291 293 294 291 287 285 286 285 284 284 284 283 281 279 277 276 274 271 268 263 257 245 224 211 200 192 188 183 177 172 169 167 165 162 159 158 157 157 157 157 158 161 164 167 169 171 173 177 180 181 181 180 178 175
318 315 313 311 312 314 315 316 316 315 314 314 314 314 315 315 315 314 313 313 312 311 310 307 305 302 299 296 293 291 291 293 296 297 297 294 291 288 286 285 285 284 281 279 277 275 273 272 270 267 263 254 245 232 215 201 191 186 182 179 175 171 169 167 166 164 162 160 160 160 161 161 163 165 167 168 168 168 171 176 178 179 178 178 177 176
315 313 311 312 313 314 315 315 316 315 315 316 317 317 317 317 316 316 315 315 315 313 312 309 306 303 300 298 297 296 296 298 300 302 301 299 296 292 288 287 287 286 282 277 275 273 270 266 262 260 256 248 236 223 210 198 189 184 181 178 174 171 168 167 166 165 164 162 162 163 164 166 167 167 166 165 164 165 169 174 176 176 175 175 175 175
314 312 312 313 314 315 315 315 315 316 317 317 318 318 318 318 318 317 317 318 317 316 315 313 310 308 306 306 305 304 302 302 303 303 303 302 299 295 292 291 291 289 285 280 275 271 265 258 252 247 244 241 233 221 208 197 190 185 183 179 175 172 168 167 167 166 165 165 165 166 167 168 167 166 163 161 161 164 169 173 175 175 175 174 175 176
313 312 313 313 314 314 314 314 315 316 318 319 319 320 320 320 320 320 320 320 320 319 318 318 317 316 315 314 312 309 305 303 302 303 303 303 301 299 296 294 293 291 287 280 273 267 260 253 247 242 237 233 226 217 207 198 192 188 184 180 176 173 170 169 169 169 169 169 168 168 168 168 166 163 161 161 163 166 170 173 175 176 176 175 175 177
313 313 313 314 314 314 314 315 316 318 319 320 321 321 321 321 321 322 322 323 322 321 321 322 322 322 321 319 315 310 305 303 302 302 302 302 301 300 298 295 292 288 282 274 267 260 254 249 245 243 240 233 224 214 204 196 192 189 185 180 175 173 172 171 172 173 174 174 172 170 168 167 165 163 163 164 167 169 171 173 176 177 177 176 175 176
313 313 313 314 315 316 316 317 318 319 320 321 321 321 321 322 322 323 324 324 324 324 325 326 326 325 322 319 314 309 304 302 300 300 300 299 299 298 295 292 288 283 275 267 260 255 249 244 241 239 237 234 227 215 204 196 191 188 184 180 177 175 173 173 173 175 176 176 175 172 169 166 165 165 166 167 170 172 174 175 176 178 180 180 179 178
313 313 314 315 316 317 318 319 320 321 322 322 321 321 321 322 323 323 324 325 325 327 328 329 328 324 320 317 313 308 304 300 298 297 296 296 295 293 290 287 282 276 270 263 258 253 248 243 239 237 236 233 224 212 200 193 188 185 183 182 179 176 173 173 174 175 176 175 174 172 169 166 166 166 168 169 171 173 175 177 178 180 182 183 185 185
314 315 316 317 317 318 318 319 321 322 323 322 322 322 323 324 325 325 324 325 326 327 329 329 327 323 317 313 310 306 303 299 297 295 293 291 289 287 284 281 276 271 266 262 258 254 250 246 241 237 236 234 225 210 197 189 184 181 181 181 178 174 171 172 174 175 175 173 172 170 169 167 167 168 169 170 172 174 176 179 181 184 185 187 188 191
315 316 318 318 319 319 319 320 321 322 323 323 322 322 324 325 326 327 326 326 328 329 329 329 326 321 315 311 307 304 301 299 297 294 291 287 283 280 278 275 271 268 264 260 256 254 252 247 241 236 233 228 219 207 196 187 182 179 178 178 177 174 172 173 174 174 174 173 171 170 169 169 169 169 170 172 173 175 178 181 183 185 187 189 190 192
317 318 319 320 320 320 319 320 321 323 324 323 323 323 324 326 328 328 328 329 329 330 330 328 324 318 312 308 305 302 299 296 294 292 289 284 279 275 272 270 267 266 265 262 258 253 246 239 233 229 226 218 207 197 190 185 181 178 176 176 176 177 177 177 176 175 174 173 171 170 170 170 170 171 172 173 174 177 180 183 185 186 186 187 188 190
319 320 320 320 320 319 319 321 322 323 324 324 324 324 325 327 329 330 331 331 331 331 330 328 322 315 310 306 303 301 297 294 291 289 287 284 280 274 269 266 265 264 262 259 254 248 241 233 226 221 214 204 195 190 187 184 180 178 177 177 177 178 177 177 177 176 176 174 172 171 171 171 172 173 173 174 176 178 182 185 188 188 189 188 187 188
321 321 321 321 320 320 320 322 323 324 324 324 324 325 327 328 330 331 332 332 332 331 329 326 321 314 308 303 300 298 296 290 288 290 294 298 297 291 274 252 237 232 223 214 205 202 204 209 214 214 208 195 186 183 184 183 181 179 178 179 179 178 177 177 177 178 178 176 175 174 174 174 175 177 177 179 180 181 184 187 191 193 195 194 192 191
321 321 321 321 320 319 320 322 324 325 324 324 324 326 327 330 331 331 332 332 333 331 329 324 318 312 305 299 298 298 297 291 289 300 346 37 56 71 88 107 124 135 142 143 140 135 130 128 134 161 194 196 188 182 182 182 181 181 180 181 181 180 179 178 179 180 180 180 179 178 179 179 180 182 183 184 185 186 188 189 192 196 199 200 199 198
322 322 322 321 320 319 320 322 324 325 325 324 325 326 328 331 333 333 333 334 334 332 328 323 316 309 301 297 298 301 301 297 299 349 53 64 71 78 89 102 114 123 128 130 129 127 123 118 114 112 125 179 189 186 183 183 183 183 183 184 183 182 181 180 181 181 182 183 183 184 185 186 187 188 188 190 191 192 194 195 196 198 201 203 204 204
323 323 323 321 319 319 320 323 324 325 325 325 325 327 329 332 335 338 338 338 336 333 328 323 316 308 301 299 301 305 310 322 18 54 62 67 71 74 81 91 104 114 121 124 124 122 119 115 113 111 111 125 160 179 183 183 183 183 184 184 184 183 182 181 181 182 184 185 187 188 189 191 192 193 194 195 196 197 198 200 200 201 202 204 206 207
324 324 323 321 320 320 322 324 325 325 325 326 327 329 332 335 338 341 342 341 338 334 329 323 317 310 305 303 307 316 346 35 53 56 58 64 68 71 75 82 91 102 111 117 119 118 114 109 107 108 112 118 128 148 170 177 179 180 180 181 183 183 183 182 181 182 183 186 188 190 191 193 194 195 197 199 200 201 201 203 204 204 205 206 208 210